3DMGAME BT资源站 最全的游戏资源站

资源搜索 | 发布资源 | 加入收藏

3DMGAME BT资源站 最全的游戏资源站

资源介绍   关闭

PS3 RSS

发布时间 分类 资源名称 大小 种子 下载 完成 发布者/联盟
07/08 17:21 PS3 3DMGAME-TEARWAY CHS 5.9GB 0 0 0 3dmgamedl
07/08 17:21 PS3 3DMGAME-CUSA09614-RYUKIWAMI2CN_CHT_V1.06 39.3GB 0 0 0 3dmgamedl
07/08 07:01 PS3 3DMGAME-CUSA03683_Until Dawn Rush of Blood_USAN 12.3GB 0 0 0 3dmgamedl
07/08 07:00 PS3 3DMGAME-CUSA06314_us_cht_Resident_Evil_Revelations 16.3GB 0 0 0 3dmgamedl
07/08 07:00 PS3 3DMGAME-CUSA04701_DOOM_EU_CHT 43.6GB 0 1 0 3dmgamedl
07/08 07:00 PS3 3DMGAME-CUSA01064_inFamousFirstLight 8.4GB 0 0 0 3dmgamedl
07/08 06:59 PS3 3DMGAME-CUSA04893_cht_ACLEGACYH 37.4GB 0 0 0 3dmgamedl
07/08 06:59 PS3 3DMGAME-CUSA04876_Eagle Flight_EU_cht 3.1GB 0 0 0 3dmgamedl
07/08 06:58 PS3 3DMGAME-CUSA05297_cht_INSIDE 1.9GB 0 0 0 3dmgamedl
07/08 06:58 PS3 3DMGAME-CUSA09574_CHT_Dissidia Final Fantasy NT 20.5GB 0 0 0 3dmgamedl
07/08 06:58 PS3 3DMGAME-CUSA05662_CHT_Metal Gear Solid V The Definitive Experience 30.2GB 0 0 0 3dmgamedl
07/08 06:57 PS3 3DMGAME-CUSA08988_CHT_US_ Attack On Titan 2 20.6GB 0 0 0 3dmgamedl
07/08 06:57 PS3 3DMGAME-CUSA01983_chs_JOURNEYPS4061115 759.4MB 0 0 0 3dmgamedl
07/08 06:56 PS3 3DMGAME-CUSA03991_CHT_DLEE 15.0GB 0 0 0 3dmgamedl
07/08 06:56 PS3 3DMGAME-CUSA02378_CHT_Assassin's Creed Syndicate 37.7GB 0 0 0 3dmgamedl
07/08 06:56 PS3 3DMGAME-CUSA01740_cht_GODOFWAR3 35.6GB 0 0 0 3dmgamedl
07/08 06:55 PS3 3DMGAME-CUSA08870_cht_Dragon_Ball_FighterZ 3.9GB 0 1 0 3dmgamedl
07/08 06:55 PS3 3DMGAME-CUSA09554_cht_MHW 13.3GB 0 0 0 3dmgamedl
07/08 06:54 PS3 3DMGAME-CUSA05603_EU_CHT_Batman The Telltale Series 4.7GB 0 0 0 3dmgamedl
07/08 06:54 PS3 3DMGAME-CUSA08096_cht_KNACK2 33.1GB 0 0 0 3dmgamedl
07/08 06:53 PS3 3DMGAME-CUSA01013_EN_DMC_Definitive_Edition 17.0GB 0 0 0 3dmgamedl
07/08 06:53 PS3 3DMGAME-CUSA04796_cht_DRIVECLUB VR 17.9GB 0 0 0 3dmgamedl
07/08 06:52 PS3 3DMGAME-CUSA07828_Street_Fighter_30th_Anniversary_Collection 4.7GB 0 0 0 3dmgamedl
07/08 06:52 PS3 3DMGAME-CUSA02468_CN_LORDSOFTHEFALLEN 5.1GB 0 0 0 3dmgamedl
07/08 06:50 PS3 3DMGAME-CUSA04632_Attack on Titan_cht 12.6GB 0 0 0 3dmgamedl
07/08 06:49 PS3 3DMGAME-CUSA00834_CHT_GUILTYGEARXrd-SIGN- 5.4GB 0 0 0 3dmgamedl
07/08 06:49 PS3 3DMGAME-CUSA09152_Sword_Art_Online_Fatal_Bullet 9.1GB 0 0 0 3dmgamedl
06/20 05:01 PS3 Yakuza 6 - The Song of Life 37.4GB 0 0 0 3dmgamedl
06/20 05:00 PS3 PERSONA5.CHT.PS4-3DM.torrent 35.5GB 0 0 3 3dmgamedl
06/17 19:23 PS3 The Last Guardian 13.2GB 0 1 0 3dmgamedl
06/17 19:21 PS3 Dragon Quest XI 29.0GB 0 1 3 3dmgamedl
06/17 19:20 PS3 Valkyria Chronicles 4 25.3GB 0 0 4 3dmgamedl
06/17 19:19 PS3 PLAS05280.YSQY-3DM.torrent 3.5GB 0 0 1 3dmgamedl
06/16 17:36 PS3 God of War4 35.2GB 0 1 0 3dmgamedl
06/16 17:32 PS3 Final Fantasy XII - The Zodiac Age 37.8GB 0 0 0 3dmgamedl
06/16 17:30 PS3 The Witcher 3: Wild Hunt 37.4GB 0 2 0 3dmgamedl
06/16 17:11 PS3 KISEKI CUSA07297-3DM.torrent 36.2GB 0 0 1 3dmgamedl
06/16 16:52 PS3 Monster.Hunter.World-3DM.torrent 14.5GB 0 0 1 3dmgamedl
05/30 21:52 PS3 Bloodborne-CUSA00900-3DM.torrent 25.4GB 0 0 0 3dmgamedl
05/30 21:43 PS3 Dark.Souls.3.R2.CUSA03365-3DM.torrent 17.0GB 0 0 0 3dmgamedl
05/06 03:51 PS3 Nier.Automata.CUSA04551-3DM.torrent 42.3GB 0 0 0 3dmgamedl
04/29 05:19 PS3 God.Of.War.R1.CUSA07408-3DM.torrent 36.1GB 0 0 0 3dmgamedl
12/25 10:54 PS3 Gran.Turismo.Sport.R1.CUSA03220-3DM.torrent 41.3GB 0 0 0 3dmgamedl
12/25 10:45 PS3 Injustice.2.CUSA05462-3DM 26.7GB 0 0 0 3dmgamedl
12/25 10:38 PS3 For.Honor.CUSA05218-3DM. 30.5GB 0 0 0 3dmgamedl
12/25 10:31 PS3 Dishonored.Death.of.the.Outsider.R1.CUSA08793-3DM 23.3GB 0 0 0 3dmgamedl
12/11 04:41 PS3 NBA 2K 18 44.9GB 0 0 1 3dmgamedl
12/11 04:40 PS3 NBA live 2018 26.6GB 0 0 1 3dmgamedl
12/11 04:35 PS3 WWE.2K18.CUSA08357-3DM.torrent 43.9GB 0 1 1 3dmgamedl
11/22 02:03 PS3 Until.Dawn.CUSA00359-3DM.torrent 36.4GB 0 0 1 3dmgamedl
11/22 01:57 PS3 Fallout.4.CUSA02557-3DM.torrent 30.8GB 0 0 1 3dmgamedl
11/22 01:49 PS3 Mass.Effect.Andromeda.CUSA02684-3DM.torrent 41.3GB 0 0 1 3dmgamedl
11/20 10:27 PS3 Star.Wars.Battlefront.II.R1.CUSA05770-3DM.torrent 46.5GB 0 2 0 3dmgamedl
11/20 10:20 PS3 Knack.2.CUSA08014-3DM.torrent 35.1GB 0 0 0 3dmgamedl
11/20 10:13 PS3 Socom_4_JPN_PS3-3DM 18.1GB 0 0 0 3dmgamedl
11/20 10:00 PS3 The.Chronicles.of.Narnia.Prince.Caspian.EUR.PS3-3DM 2.5GB 0 0 0 3dmgamedl
11/20 10:00 PS3 Surf's Up 5.0GB 0 0 0 3dmgamedl
11/20 09:18 PS3 SBK_X_Superbike_World_Championship_JB_PS3-3DM 1.9GB 0 0 0 3dmgamedl
11/20 09:12 PS3 SAW_ASiA_PS3-3DM 1.9GB 0 0 0 3dmgamedl
11/20 08:48 PS3 NHL_2K9_JAP_PS3-3DM 3.6GB 0 0 0 3dmgamedl
11/04 07:28 PS3 FFXV.CUSA01633-3DM.torrent 40.9GB 0 0 4 3dmgamedl
11/04 07:28 PS3 PES.2018.CUSA08282-3DM.torrent 23.2GB 0 0 2 3dmgamedl
11/04 07:28 PS3 FIFA.18.CUSA08006-3DM.torrent 35.7GB 0 4 2 3dmgamedl
11/04 07:27 PS3 Wolfenstein.II.The.New.ColossusCUSA07384-3DM.torrent 46.0GB 0 0 1 3dmgamedl
11/04 07:27 PS3 ACO.CUSA05855-3DM.torrent 41.9GB 0 0 2 3dmgamedl
09/04 18:38 PS3 MSG4.25th.Anniversary.Edition.PSN EN-3DM.torrent 27.1GB 0 0 3 3dmgamedl
08/31 08:46 PS3 Shin.Sangokumusou.7.with.Moushouden.CHT.PS3 3DM 22.9GB 0 1 0 3dmgamedl
08/31 08:46 PS3 Metal.Gear.Solid.4.Guns.of.the.Patriots.25th.Anniversary.Edition.PSN EN 3DM 27.9GB 0 0 0 3dmgamedl
08/31 08:44 PS3 amazing.spider man2 PS3 USA EN 3DM 6.0GB 0 0 37 3dmgamedl
08/24 17:25 PS3 Ni no Kuni - Wrath of the White Witch - All in One Edition CHS PS3-3DM.torrent 3.0GB 0 0 137 3dmgamedl
08/24 17:23 PS3 Ni no Kuni - Wrath of the White Witch - All in One Edition JPN PS3-3DM.torrent 17.6GB 0 1 12 3dmgamedl
08/21 20:01 PS3 LEGO Marvel’s Avengers USA PS3-3DM.torrent 6.3GB 0 0 0 3dmgamedl
08/21 15:52 PS3 Ryu.ga.Gotoku.Zero.Chikai.no.Basho.ASIA.CHT.PS3-3DM.torrent 19.6GB 0 0 0 3dmgamedl
07/28 23:35 PS3 PS3.Date.A.Live.Rine.Utopia.CHS-V1.torrent 3.2GB 0 2 1 3dmgamedl
07/28 23:34 PS3 Lego_Marvels_Avengers_PS3-3DM.torrent 6.3GB 0 0 1 3dmgamedl
05/21 03:35 PS3 Sangokushi.13.with.Power.Up.Kit.JPN.PS3-3DM.torrent 6.8GB 0 1 43 3dmgamedl
05/21 03:34 PS3 Winning_Post_8_2017_JPN_PS3-HR.torrent 6.9GB 0 0 32 3dmgamedl
05/21 03:32 PS3 Meruru no Atelier Arland no Renkinjutsushi 3 CHS PS3-3dm.torrent 6.2GB 0 2 11 3dmgamedl
08/08 21:30 PS3 BLJM61266.Gendai.Daisenryaku.2016.Chitsujo.no.Houkai.Haken.Kokka.Shittsui.日版-3DM.rar 871.9MB 0 0 56 3dmgamedl
08/07 21:12 PS3 Shin.Sangoku.Musou.Eiketsuden.JAP.PS3.PSN-3DM.torrent 11.8GB 0 0 1 3dmgamedl
08/07 18:22 PS3 Shin.Sangoku.Musou.Eiketsuden.JAP.PS3-3DM.torrent 11.4GB 0 0 35 3dmgamedl
08/07 17:55 PS3 Risk.Urban.Assault.PS3.PSN-3DM 1.4GB 0 0 3 3dmgamedl
11/02 13:16 PS3 3DMGAME-Call.of.Duty.Black.Ops.3.PSN.PS3-3DM.torrent 6.7GB 1 0 1559 星云散落
10/15 19:45 PS3 3DMGAME-Tales.of.Zestiria.PS3-DUPLEX.torrent 8.6GB 0 0 1 星云散落
10/03 07:47 PS3 3DMGAME-Transformers.Devastation.PS3-DUPLEX.torrent 3.6GB 0 0 8 星云散落
09/24 10:25 PS3 3DMGAME-NBA.2K16.PS3-iMARS.torrent 8.1GB 0 0 9 星云散落
09/23 06:25 PS3 3DMGAME-Saint.Seiya.Soldiers.Soul.PS3-DUPLEX.torrent 5.3GB 0 0 1 星云散落
09/18 10:58 PS3 3DMGAME-FIFA.16.PS3-iMARS.torrent 6.9GB 0 0 5 星云散落
09/08 07:37 PS3 3DMGAME-FIFA.16.DEMO.PSN-3DM.torrent 1.7GB 0 0 119 星云散落
03/13 16:00 PS3 3DMGAME-Battlefield.Hardline.PS3-iMARS.torrent 12.8GB 0 0 16 星云散落
02/24 16:52 PS3 3DMGAME-Resident.Evil.Revelations.2.Episode.01.Penal.Colony.PSN.PS3-PSFR33.torrent 2.8GB 0 0 84 星云散落
02/21 08:28 PS3 3DMGAME-Dragonball_Xenoverse_PS3-PROTOCOL.torrent 6.2GB 0 0 8 星云散落
02/07 20:02 PS3 3DMGAME-Dragon_Ball_Xenoverse_JPN_PS3-HR.torrent 6.2GB 0 0 3461 星云散落
11/15 15:02 PS3 3DMGAME-Dragon.Age.Inquisition.PS3-DUPLEX.torrent 16.3GB 0 0 2 星云散落
11/15 12:50 PS3 3DMGAME-Escape.Dead.Island.PS3-DUPLEX.torrent 4.2GB 0 0 1 星云散落
11/14 09:32 PS3 3DMGAME-Far.Cry.4.PS3-iMARS.torrent 8.9GB 0 0 5 星云散落
11/07 09:35 PS3 3DMGAME-Pro.Evolution.Soccer.2015.PS3-DUPLEX.torrent 7.5GB 0 0 2 星云散落
10/30 14:39 PS3 3DMGAME-Call.of.Duty.Advanced.Warfare.PS3-iMARS.torrent 13.5GB 0 1 10 星云散落
09/18 17:07 PS3 3DMGAME-Pro.Evolution.Soccer.2015.Demo.PS3-3DM.torrent 880.2MB 0 0 364 星云散落
09/11 07:59 PS3 3DMGAME-FIFA.15.PS3.DEMO-3DM.torrent 1.6GB 0 0 1 星云散落
« 上一页12下一页 »